Probability
0 0 0 0 0 0 0 0 0 0 2 6 11 12 10 8 5 3 2 1 0 0 0 0 0 0 0 0 0 0 0 0 0 0 0 0 0 0 0 0 0 0 0 0
0 0 0 0 0 0 0 0 0 1 3 7 12 12 9 5 3 1 1 1 0 0 0 0 0 0 0 0 0 0 0 0 0 0 0 0 0 0 0 0 0 0 0 0
0 0 0 0 0 0 0 0 0 2 5 9 12 12 9 4 1 0 0 0 0 0 0 0 0 0 0 0 0 0 0 0 0 0 0 0 0 0 0 0 0 0 0 0
0 0 0 0 0 0 0 0 0 3 6 9 11 11 9 5 2 1 0 0 0 0 0 0 0 0 0 0 0 0 0 0 0 0 0 0 0 0 0 0 0 0 0 0
0 0 0 0 0 0 0 0 0 1 4 7 8 8 8 6 3 1 0 0 0 0 0 0 0 0 0 0 0 0 0 0 0 0 0 0 0 0 0 0 0 0 0 0
0 0 0 0 0 0 0 0 0 0 1 4 5 5 6 5 3 1 0 0 0 0 0 0 0 0 0 0 0 0 0 0 0 0 0 0 0 0 0 0 0 0 0 0
0 0 0 0 0 0 0 0 0 0 2 3 3 5 5 4 1 0 0 0 0 0 0 0 0 0 0 0 0 0 0 0 0 0 0 0 0 0 0 0 0 0 0 0
0 1 2 2 1 1 0 0 0 1 3 4 3 3 3 1 0 0 0 0 0 0 0 0 0 0 0 0 0 0 0 0 0 0 0 0 0 0 0 0 0 0 0 0
0 1 3 3 2 1 0 0 0 1 2 3 1 1 1 0 0 0 0 0 0 0 0 0 0 0 0 0 0 0 0 0 0 0 0 0 0 0 0 0 0 0 0 0
0 1 2 2 1 1 0 0 0 0 1 1 0 0 0 0 0 0 0 0 0 0 0 0 0 0 0 0 0 0 0 0 0 0 0 0 0 0 0 0 0 0 0 0
0 0 0 0 0 0 0 0 0 0 0 0 0 0 0 0 0 0 0 0 0 0 0 0 0 0 0 0 0 0 0 0 0 0 0 0 0 0 0 0 0 0 0 0
0 0 0 0 0 0 0 0 0 0 0 0 0 0 0 0 0 0 0 0 0 0 0 0 0 0 0 0 0 0 0 0 0 0 0 0 0 0 0 0 0 0 0 0
0 0 0 0 0 0 1 0 0 0 0 0 0 0 0 0 0 0 0 0 0 0 0 0 0 0 0 0 0 0 0 0 0 0 0 0 0 0 0 0 0 0 0 0
0 0 0 0 0 1 1 0 0 0 0 0 0 0 0 0 0 0 0 0 0 0 0 0 0 0 0 0 0 0 0 0 0 0 0 0 0 0 0 0 0 0 0 0
1 0 1 2 2 2 1 0 0 1 0 0 0 0 0 0 0 0 0 0 0 0 0 0 0 0 0 0 0 0 0 0 0 0 0 0 0 0 0 0 0 0 0 0
1 1 2 3 3 2 1 0 1 1 0 0 0 0 0 0 0 0 0 0 0 0 0 0 0 0 0 0 0 0 0 0 0 0 0 0 0 0 0 0 0 0 0 0
1 1 3 3 1 1 0 0 1 0 0 0 0 0 0 0 0 0 0 0 0 0 0 0 0 0 0 0 0 0 0 0 0 0 0 0 0 0 0 0 0 0 0 0
1 2 2 1 0 0 0 0 0 0 0 0 0 0 0 0 0 0 0 0 0 0 0 0 0 0 0 0 0 0 0 0 0 0 0 0 0 0 0 0 0 0 0 0
1 2 1 0 0 0 0 0 0 0 0 0 0 0 0 0 0 0 0 0 0 0 0 0 0 0 0 0 0 0 0 0 0 0 0 0 0 0 0 0 0 0 0 0
1 1 0 0 0 0 0 0 0 0 0 0 0 0 0 0 0 0 0 0 0 0 0 0 0 0 0 0 0 0 0 0 0 0 0 0 0 0 0 0 0 0 0 0
1 1 1 0 0 0 0 0 0 0 0 0 0 0 0 0 0 0 0 0 0 0 0 0 0 0 0 0 0 0 0 0 0 0 0 0 0 0 0 0 0 0 0 0
4 4 3 1 0 0 0 0 0 0 0 0 0 0 0 0 0 0 0 0 0 0 0 0 0 0 0 0 0 0 0 0 0 0 0 0 0 0 0 0 0 0 0 0
9 8 6 3 1 0 0 0 0 0 0 0 0 0 0 0 0 0 0 0 0 0 0 0 0 0 0 0 0 0 0 0 0 0 0 0 0 0 0 0 0 0 0 0
12 10 7 4 1 0 0 0 0 0 0 0 0 0 0 0 0 0 0 0 0 0 0 0 0 0 0 0 0 0 0 0 0 0 0 0 0 0 0 0 0 0 0 0
15 12 8 5 2 0 0 0 0 0 0 0 0 0 0 0 0 0 0 0 0 0 0 0 0 0 0 0 0 0 0 0 0 0 0 0 0 0 0 0 0 0 0 0
17 14 10 6 2 0 0 0 0 0 0 0 0 0 0 0 0 0 0 0 0 0 0 0 0 0 0 0 0 0 0 0 0 0 0 0 0 0 0 0 0 0 0 0
18 15 11 6 2 0 0 0 0 0 0 0 0 0 0 0 0 0 0 0 0 0 0 0 0 0 0 0 0 0 0 0 0 0 0 0 0 0 0 0 0 0 0 0
Wind_Speed
9 10 9 11 11 9 7 6 6 4 2 7 9 11 12 12 11 11 10 10 10 10 9 9 9 9 8 8 8 8 9 9 8 7 7 7 6 6 5 5 6 5 5 6
12 11 11 11 9 7 6 5 3 1 5 9 12 13 12 11 12 12 11 11 10 10 9 9 8 8 8 7 7 7 8 8 7 6 7 7 6 5 5 5 5 5 6 7
10 11 10 8 5 4 3 4 3 2 7 13 13 12 12 12 11 12 12 11 10 9 8 8 8 7 7 7 6 7 7 7 6 6 6 6 6 5 4 4 4 5 6 7
8 8 7 3 4 3 3 5 7 10 12 12 12 11 11 11 12 12 12 12 10 9 9 8 8 7 6 6 6 6 7 6 6 5 5 5 5 5 4 4 4 4 6 6
6 7 4 2 1 1 2 4 7 11 13 14 15 13 9 10 11 12 12 11 9 9 9 8 8 7 7 6 6 6 6 5 5 4 4 4 5 4 4 3 3 4 5 6
7 6 4 1 2 2 3 4 8 12 13 15 13 7 7 11 12 13 12 10 9 9 9 8 7 6 6 6 6 6 5 5 5 4 4 5 4 3 3 3 3 4 5 5
9 6 1 2 2 1 1 4 8 10 11 11 7 7 15 15 13 13 12 11 10 9 8 7 6 6 6 6 6 5 5 5 5 5 5 4 3 2 2 3 3 4 5 5
5 3 0 3 2 4 6 8 9 10 11 12 14 18 18 16 15 13 12 11 10 8 8 6 6 6 6 6 5 5 5 5 4 3 4 5 3 2 3 2 3 3 4 4
1 2 4 7 8 8 8 10 11 12 15 16 17 17 17 16 14 13 12 10 9 9 8 6 6 6 6 5 4 5 4 4 3 4 4 3 2 2 2 1 2 2 3 3
4 6 7 8 8 9 10 12 13 15 16 17 17 17 17 15 13 12 11 11 10 10 9 7 6 7 6 5 4 4 4 4 3 3 3 3 2 3 4 4 3 3 3 3
5 8 9 9 9 12 13 15 15 16 16 16 18 17 16 14 13 12 11 10 9 9 8 8 7 7 6 5 4 4 4 3 3 3 4 4 6 6 6 6 6 5 5 4
3 7 7 11 12 14 14 15 16 17 17 16 16 17 16 13 12 12 11 10 9 9 9 9 8 6 5 4 4 3 3 3 3 3 3 3 5 6 9 7 7 9 8 6
7 8 13 14 14 15 15 16 16 16 17 16 15 15 15 13 12 12 12 11 10 10 9 9 8 6 6 5 4 4 3 2 2 3 2 2 3 4 5 4 4 4 5 5
11 15 16 15 15 15 17 17 17 17 16 15 15 15 14 13 13 12 12 11 10 9 9 8 8 7 6 5 4 3 3 3 1 2 2 2 2 2 3 4 4 3 2 2
9 12 15 17 17 17 17 17 17 16 16 15 14 14 14 13 13 12 11 11 10 9 9 8 8 7 6 5 4 3 2 2 2 1 1 2 2 2 3 3 3 4 5 4
10 15 17 18 18 18 18 18 16 16 16 15 14 14 14 13 12 12 11 10 9 8 8 7 7 7 6 5 3 2 2 2 1 1 1 2 2 2 2 3 3 3 3 3
15 17 18 18 18 18 17 16 15 16 16 15 15 14 14 13 13 12 11 9 8 7 7 6 7 7 6 6 4 3 3 4 4 3 2 2 2 2 2 2 3 2 3 3
14 16 17 17 17 17 17 16 16 16 15 16 16 15 14 13 12 12 11 10 8 7 7 6 6 5 6 5 3 2 2 4 4 2 2 2 1 2 2 2 3 3 4 5
15 17 17 17 17 16 16 16 16 16 16 16 16 14 13 12 12 11 11 10 9 8 7 6 5 4 4 3 2 3 3 3 3 3 3 3 3 3 3 2 2 2 2 3
16 17 18 18 17 16 16 16 16 15 15 15 15 14 13 13 12 11 11 9 7 7 8 7 6 5 5 5 4 5 3 3 3 4 4 4 3 3 3 2 2 2 1 1
17 18 19 18 17 17 16 17 16 16 15 15 15 14 13 13 12 11 9 8 7 8 9 8 6 5 5 4 5 6 4 3 3 4 4 4 3 3 3 2 2 2 1 1
17 17 18 18 17 16 15 15 15 16 16 15 15 14 13 12 12 10 9 6 9 9 8 8 7 5 3 3 6 6 4 3 2 2 3 3 3 3 2 2 2 2 2 2
16 16 17 17 17 16 16 15 15 15 15 15 14 14 13 11 10 9 9 7 9 10 8 6 7 8 5 5 7 5 3 3 2 2 3 3 3 3 3 3 2 2 2 2
15 16 16 16 16 16 16 16 15 13 14 14 13 13 12 10 8 8 8 10 11 11 7 6 12 10 6 6 7 6 4 4 4 3 3 4 4 3 3 3 3 3 3 4
16 16 17 17 16 14 14 15 15 14 14 11 13 13 11 9 8 8 8 11 13 12 8 9 11 10 7 8 8 6 4 2 1 1 1 2 2 3 4 4 3 3 3 3
14 13 13 12 11 11 12 12 12 12 12 11 11 11 10 8 9 8 8 11 14 11 9 9 10 9 9 9 8 7 4 4 4 4 4 3 3 3 2 2 3 3 3 3
15 12 11 12 12 12 12 12 12 12 12 11 11 11 11 10 9 10 11 10 11 11 10 9 10 10 10 10 9 7 6 5 5 5 4 4 4 4 3 4 3 3 3 3
Wind_Direction
280 272 258 263 275 290 305 307 308 327 86 134 139 133 126 122 121 117 115 110 105 101 99 97 93 89 87 86 87 90 93 91 90 91 90 89 87 87 89 91 92 88 83 74
289 283 280 281 288 301 299 308 312 64 86 119 123 121 125 130 130 127 125 119 113 111 111 107 104 104 103 101 102 105 104 102 102 99 95 91 89 85 84 81 85 87 82 75
289 292 291 289 297 295 321 359 351 40 116 127 127 132 137 138 136 135 133 127 124 120 117 114 110 106 105 108 110 106 105 105 103 99 99 103 107 102 98 93 90 93 92 88
281 291 282 282 323 359 35 46 66 99 120 126 127 124 127 134 135 134 133 130 128 125 121 118 116 115 111 106 102 101 100 98 98 105 107 107 105 103 97 94 93 95 100 98
279 285 270 261 184 32 54 68 93 116 120 121 122 115 111 124 129 130 130 128 125 125 125 125 122 121 115 106 105 102 101 104 104 99 99 102 101 106 108 113 114 111 111 110
270 287 290 329 78 80 105 107 109 125 133 140 149 144 138 134 128 126 125 125 126 128 129 124 124 125 121 120 114 109 110 111 108 106 101 97 100 110 121 130 122 116 113 109
261 270 258 27 20 309 305 124 123 132 143 154 157 115 131 133 128 129 131 134 134 133 129 127 134 135 128 117 113 112 109 110 112 109 108 100 93 93 108 104 97 100 108 109
267 264 107 5 17 57 95 117 125 128 127 120 111 117 127 131 133 136 138 139 137 133 129 130 137 133 121 114 115 112 108 104 99 101 103 102 101 95 92 105 114 117 124 122
54 86 90 61 77 97 114 119 122 121 121 122 124 129 131 134 137 139 140 139 137 132 129 128 131 130 124 121 117 108 103 100 95 86 82 96 111 122 129 131 115 117 116 119
121 116 107 97 99 103 107 114 118 123 127 129 130 132 133 136 139 140 138 139 138 137 135 133 132 125 123 124 120 113 111 112 113 107 101 83 58 58 60 49 51 70 83 97
119 134 127 118 114 112 112 114 118 122 126 131 133 135 136 138 139 139 138 139 141 140 137 135 133 130 131 126 119 119 124 121 113 107 99 84 71 50 62 54 49 48 43 60
148 148 134 128 123 122 123 123 124 125 126 130 134 136 137 137 137 140 141 142 143 140 138 136 135 133 131 131 128 129 129 127 121 120 118 124 121 97 62 83 82 74 63 62
117 128 119 124 126 126 126 125 126 127 129 132 133 135 135 136 139 140 141 141 140 139 138 138 138 138 139 139 129 122 122 116 123 120 116 115 126 135 133 110 79 75 72 70
113 118 126 132 129 127 126 125 125 125 128 130 132 135 137 138 139 141 141 140 141 139 139 142 144 142 142 138 136 132 134 121 128 127 135 139 132 136 144 151 157 158 168 192
130 133 131 130 129 129 129 130 130 131 133 134 137 139 141 142 142 141 141 142 143 146 147 148 145 140 142 142 144 145 144 128 126 117 150 135 129 138 135 140 152 153 153 176
137 133 134 137 137 138 140 141 139 139 140 140 141 143 143 141 141 142 144 146 150 151 148 146 142 146 149 145 150 149 125 103 146 183 169 146 135 131 130 138 139 139 151 163
155 150 148 147 146 147 147 147 144 143 143 145 145 143 142 142 142 145 148 150 151 146 146 147 150 156 161 165 187 195 168 161 195 218 190 148 141 136 135 136 138 142 118 106
158 153 152 151 151 150 150 148 146 145 146 146 145 146 147 149 150 150 150 151 151 148 153 156 157 170 170 171 194 226 193 175 189 182 146 136 142 154 147 152 154 146 143 162
153 151 151 152 151 151 150 147 147 147 147 148 149 151 152 153 152 152 154 159 160 160 161 149 149 187 175 163 215 225 227 190 165 151 142 147 210 189 156 158 147 135 147 157
151 151 152 152 152 151 149 147 147 148 150 152 152 154 155 156 157 159 163 167 168 160 154 151 176 198 189 181 231 248 230 207 179 163 171 181 181 159 161 164 146 136 140 140
155 154 154 154 152 151 150 150 151 152 154 156 157 158 158 159 163 166 172 170 160 157 154 158 197 201 200 188 212 241 236 216 196 178 170 165 161 169 168 163 161 157 166 171
156 156 156 153 152 151 151 152 154 155 156 159 162 161 161 164 168 173 184 169 159 154 168 184 200 191 178 211 235 232 229 225 209 170 147 151 163 173 172 175 180 180 171 172
156 156 155 154 153 151 152 156 159 159 162 165 166 165 168 171 174 178 180 171 164 168 191 190 164 147 157 233 257 256 234 233 229 182 161 166 178 181 180 189 197 192 174 189
154 154 153 152 152 154 158 161 160 162 166 169 170 171 173 176 183 191 176 162 159 165 191 156 154 161 191 244 258 254 224 222 231 217 185 180 185 188 187 192 204 206 198 201
154 155 154 156 159 161 162 161 161 166 172 174 173 175 182 187 186 182 164 160 157 168 177 168 177 182 212 242 251 253 240 230 242 285 227 212 217 201 193 199 206 215 217 212
155 159 158 163 162 161 164 166 169 173 177 176 176 179 186 187 183 171 164 166 170 185 193 178 187 202 225 239 244 247 233 193 196 219 235 245 252 251 225 215 218 227 228 221
159 157 158 168 168 171 172 174 176 178 181 181 180 180 184 186 183 179 178 174 176 188 204 198 195 204 218 228 233 233 235 230 222 220 220 224 237 241 232 221 225 227 228 226